Location: Binningen
(47.7924°N, 8.7261°E)
Time: 22:52:40
(UTC+00:00)

Terra - Pass Details

Date: 29 September 2021
Orbit: 701 x 703 km, 98.2° (Epoch: 18 October)

Event Time Altitude Azimuth Distance (km) Brightness Sun altitude
Exits shadow 21:05:34 17° 352° (N) 1,743 4.3 -37.0°
Drops below altitude 10° 21:06:40 10° 351° (N) 2,181 4.9 -37.1°
Sets 21:08:56 0° 349° (NNW) 3,103 5.9 -37.4°
